[[{"header":{"parameterUnit":"m.s-1","parameterCategory":2,"la1":30.2991,"la2":30.254,"lo1":-89.0895,"lo2":-89.0444,"dy":0.0017,"dx":0.0017,"nx":28,"ny":28,"refTime":"2025-07-13T21:00:00:Z","depth":"0","parameterNumber":2,"parameterNumberName":"U-component_of_CURRENTS"},"data":[0,0,0,0,0,0,0,0,0,0,0,0,0,0,0,0,0,0,0,0,0,0,0,0,0,0,0,0,0,0,0,0,0,0,0,0,0,0,0,0,0,0,0,0,0,0,0,0,0,0,0,0,0,0,0,0,0,0,0.4788,0.4789,0,0.4864,0.4864,0.4865,0.4867,0.4867,0.4867,0.4867,0.4828,0.4827,0.4826,0,0,0,0,0,0,0,0,0,0,0,0,0,0.4584,0.4588,0.4788,0.479,0.4792,0.4864,0.4864,0.4865,0.4867,0.4867,0.4867,0.4867,0.4828,0.4827,0.4826,0,0,0,0,0,0,0,0,0,0,0,0,0,0.4658,0.4589,0.4787,0.4809,0.4813,0.4864,0.4864,0.4865,0.4867,0.4867,0.4867,0.4867,0.4829,0.4827,0.4825,0.4814,0,0,0.482,0.482,0,0,0,0,0,0,0,0,0.4654,0.4664,0.4804,0.4808,0.4812,0.4866,0.4779,0.4846,0.4867,0.4835,0.4867,0.4867,0.4836,0.4834,0.4835,0.4812,0.4811,0.482,0.4819,0.4819,0.4818,0,0,0,0,0,0,0,0.4649,0.4661,0.4807,0.4807,0.4811,0.4796,0.4806,0.4791,0.4824,0.4838,0.4841,0.4866,0.4836,0.4837,0.4834,0.481,0.482,0.4819,0.4818,0.4817,0.4803,0.4804,0,0,0,0,0,0,0.4665,0.4657,0.4805,0.4811,0.4743,0.4801,0.4811,0.484,0.4827,0.4829,0.4866,0.4866,0.4839,0.4836,0.4833,0.4821,0.4819,0.4817,0.4816,0.4803,0.4804,0.4804,0,0,0,0,0,0,0.466,0.4677,0.4802,0.4743,0.4759,0.4806,0.4837,0.4841,0.4845,0.4852,0.4849,0.4867,0.4839,0.4835,0.4829,0.4819,0.4816,0.4815,0.4802,0.4803,0.4804,0.4795,0,0,0,0,0,0,0.4653,0.4675,0.4687,0.4745,0.4764,0.4822,0.4838,0.4843,0.4866,0.4866,0.4851,0.4848,0.4839,0.4832,0.4828,0.4817,0.4814,0.4801,0.4803,0.4804,0.4795,0.4796,0.4797,0,0,0,0,0,0.4646,0.4651,0.4687,0.4705,0.4784,0.4823,0.4829,0.4854,0.4866,0.4857,0.4864,0.4848,0.4836,0.4831,0.4826,0.4814,0.4801,0.4802,0.4804,0.4794,0.4796,0.4797,0,0,0,0,0,0,0.4549,0.4655,0.4695,0.4728,0.4777,0.4827,0.4825,0.4855,0.4854,0.4852,0.4852,0.4849,0.4848,0.4835,0.483,0.4818,0.4817,0.4817,0.4812,0.4813,0.4814,0.4839,0.4812,0,0,0,0,0,0.4546,0.4584,0.4675,0.4696,0.4723,0.4777,0.4795,0.4822,0.4844,0.4844,0.4841,0.4841,0.4849,0.4834,0.4837,0.4817,0.4865,0.481,0.4811,0.4812,0.4832,0.491,0.492,0.4809,0.4809,0.4809,0,0,0.4512,0.4577,0.4597,0.468,0.4715,0.4747,0.4783,0.481,0.4827,0.4838,0.4831,0.4846,0.4851,0.4844,0.4839,0.4826,0.4868,0.4813,0.4814,0.4834,0.4913,0.4924,0.4934,0.481,0.481,0.4809,0,0,0.4472,0.4526,0.4554,0.4598,0.4675,0.4709,0.4722,0.4779,0.479,0.4804,0.4827,0.4846,0.4828,0.4845,0.4849,0.4856,0.4884,0.4845,0.4848,0.4923,0.4933,0.4943,0.5015,0.5032,0.4828,0.4828,0.4828,0,0.4426,0.4495,0.4558,0.4597,0.463,0.4694,0.472,0.4739,0.4783,0.4793,0.4796,0.4834,0.4836,0.4857,0.4869,0.4858,0.491,0.4838,0.4926,0.4936,0.4946,0.5018,0.5036,0.4827,0.4827,0.4827,0.4827,0,0.4425,0.4478,0.4486,0.457,0.4596,0.4625,0.4685,0.4696,0.4722,0.4755,0.4786,0.4815,0.4842,0.4841,0.4858,0.492,0.4939,0.4931,0.4923,0.4957,0.503,0.5049,0.4827,0.4827,0.4827,0.4827,0,0,0.4322,0.4467,0.4466,0.4515,0.4593,0.4613,0.4631,0.4678,0.4693,0.473,0.4764,0.4799,0.4837,0.4851,0.4877,0.4938,0.5055,0.4966,0.497,0.5039,0.5235,0.5044,0.5047,0.5067,0.507,0.5073,0.5256,0,0.4306,0.4396,0.4453,0.4495,0.4549,0.4596,0.4602,0.464,0.4674,0.4712,0.477,0.4806,0.4832,0.4856,0.4929,0.5029,0.5106,0.5007,0.5191,0.5197,0.5025,0.5062,0.4756,0.4875,0.5275,0.5278,0.5281,0,0.4287,0.4363,0.4427,0.4509,0.4525,0.453,0.4564,0.4584,0.4644,0.4675,0.4737,0.4792,0.4895,0.4915,0.5112,0.5051,0.5158,0.5232,0.524,0.5082,0.5041,0.4907,0.4895,0.4767,0.531,0.5308,0.5306,0,0.4225,0.4327,0.4384,0.4415,0.4508,0.4503,0.4523,0.4563,0.4577,0.4662,0.4689,0.4815,0.4872,0.5037,0.5163,0.5171,0.5373,0.5395,0.533,0.5319,0.5102,0.5064,0.4985,0.556,0.556,0.5559,0.5559,0,0.4202,0.4238,0.4359,0.4389,0.4402,0.4464,0.4456,0.4491,0.4547,0.4553,0.467,0.4708,0.4909,0.5026,0.5183,0.528,0.5388,0.5349,0.5352,0.5086,0.5045,0.4958,0.4942,0.5566,0.5565,0.5563,0.5562,0,0.4131,0.4224,0.4283,0.4372,0.4384,0.4381,0.4405,0.4401,0.4465,0.4488,0.4517,0.4654,0.4784,0.4951,0.5193,0.5248,0.5235,0.5405,0.5062,0.5019,0.4811,0.4807,0.4662,0.4554,0.5397,0.5394,0.5391,0,0.4118,0.4154,0.4245,0.4247,0.4277,0.4288,0.4278,0.4345,0.4343,0.4433,0.4438,0.4564,0.461,0.4852,0.4952,0.5138,0.5085,0.4971,0.4918,0.4751,0.4754,0.4646,0.4561,0.4659,0.465,0.4643,0.4637,0,0.4073,0.4099,0.4146,0.4156,0.4149,0.4146,0.4145,0.4136,0.4194,0.4204,0.4235,0.4287,0.4453,0.444,0.4606,0.4715,0.4673,0.4826,0.4751,0.4239,0.4023,0.3932,0.4607,0.4573,0.4579,0.4584,0.4587,0.459,0.4001,0.4014,0.4053,0.402,0.4016,0.3958,0.3867,0.3883,0.3839,0.3751,0.3948,0.3869,0.3972,0.414,0.4214,0.4107,0.4261,0.4047,0.409,0.4023,0.3775,0.4286,0.4172,0.4176,0.418,0.4183,0.4185,0,0.387,0.3891,0.39,0.384,0.3735,0.3789,0.3723,0.3583,0.3434,0.3426,0.3386,0.3329,0.3303,0.3431,0.3452,0.3384,0.3322,0.3339,0.3141,0.313,0.3662,0.3478,0.3081,0.3081,0.3081,0.3081,0.3082,0.3082,0.3803,0.3771,0.377,0.3558,0.3486,0.3266,0.3173,0.3036,0.2962,0.2723,0.2599,0.265,0.289,0.2971,0.2888,0.2842,0.2734,0.256,0.2718,0.3099,0.3169,0.3235,0.3055,0.2576,0.2576,0.1986,0.1982,0.1978]},{"header":{"parameterUnit":"m.s-1","parameterCategory":2,"la1":30.2991,"la2":30.254,"lo1":-89.0895,"lo2":-89.0444,"dy":0.0017,"dx":0.0017,"nx":28,"ny":28,"refTime":"2025-07-13T21:00:00:Z","depth":"0","parameterNumber":3,"parameterNumberName":"V-component_of_CURRENTS"},"data":[0,0,0,0,0,0,0,0,0,0,0,0,0,0,0,0,0,0,0,0,0,0,0,0,0,0,0,0,0,0,0,0,0,0,0,0,0,0,0,0,0,0,0,0,0,0,0,0,0,0,0,0,0,0,0,0,0,0,0.0139,0.0138,0,0.003,0.0029,0.0027,-0.0018,-0.0018,-0.0018,-0.0017,-0.0148,-0.0152,-0.0155,0,0,0,0,0,0,0,0,0,0,0,0,0,0.0244,0.0242,0.0139,0.0138,0.0136,0.003,0.0029,0.0027,-0.0018,-0.0018,-0.0018,-0.0017,-0.0147,-0.0151,-0.0155,0,0,0,0,0,0,0,0,0,0,0,0,0,0.0173,0.0242,0.0139,0.0101,0.0097,0.003,0.0028,0.0027,-0.0018,-0.0018,-0.0018,-0.0017,-0.0145,-0.0151,-0.0156,-0.0197,0,0,-0.0173,-0.0175,0,0,0,0,0,0,0,0,0.0177,0.0169,0.0108,0.0104,0.0098,0.002,0.0018,-0.0049,-0.0018,0.0025,-0.0017,-0.0017,-0.0094,-0.0104,-0.0125,-0.0203,-0.0209,-0.0174,-0.0177,-0.0179,-0.0181,0,0,0,0,0,0,0,0.0182,0.0173,0.0096,0.0107,0.0101,0.0067,0.0058,0.0004,-0.0035,0.0021,0.0018,0.0006,-0.0097,-0.0119,-0.0128,-0.0211,-0.0173,-0.0178,-0.0182,-0.0184,-0.0219,-0.0216,0,0,0,0,0,0,0.0199,0.0178,0.0099,0.0092,0.0139,0.0065,0.0055,0.0045,-0.0035,-0.0046,0.0006,0.0004,-0.011,-0.0122,-0.0133,-0.0105,-0.0179,-0.0184,-0.0188,-0.0221,-0.0218,-0.0216,0,0,0,0,0,0,0.0201,0.0193,0.0104,0.0133,0.0119,0.0064,0.0052,0.0042,0.0021,-0.0046,-0.0058,-0.0005,-0.011,-0.0125,-0.0148,-0.0113,-0.0187,-0.0192,-0.0224,-0.022,-0.0217,-0.0101,0,0,0,0,0,0,0.0205,0.0194,0.0191,0.0134,0.0118,0.0068,0.0051,0.004,0.0013,0.001,-0.006,-0.0072,-0.0111,-0.0139,-0.0153,-0.0122,-0.0196,-0.0227,-0.0222,-0.0218,-0.0108,-0.0094,-0.0082,0,0,0,0,0,0.0209,0.0201,0.0192,0.0182,0.0116,0.0067,0.0056,0.0018,0.0013,0.0001,-0.0019,-0.0069,-0.0119,-0.0142,-0.0159,-0.0129,-0.0229,-0.0224,-0.0218,-0.0114,-0.0097,-0.0082,0,0,0,0,0,0,0.025,0.0194,0.0183,0.0161,0.0121,0.006,0.0044,0.0021,-0.0008,-0.0004,-0.0058,-0.0071,-0.007,-0.0115,-0.0138,-0.012,-0.0176,-0.0174,-0.009,-0.0075,-0.0062,-0.0033,-0.0201,0,0,0,0,0,0.0257,0.0236,0.0183,0.0168,0.015,0.01,0.0076,0.0051,0.0017,0.0004,-0.0037,-0.0061,-0.0063,-0.0081,-0.0106,-0.0118,-0.0131,-0.0101,-0.0088,-0.0077,-0.0061,-0.0019,-0.0001,-0.0198,-0.0198,-0.0198,0,0,0.0272,0.0237,0.0227,0.0175,0.0142,0.0128,0.0086,0.0054,0.006,-0.0006,-0.001,-0.0029,-0.0054,-0.0045,-0.0049,-0.008,-0.003,-0.007,-0.0061,-0.005,-0.0011,0.0008,0.0025,-0.0194,-0.0195,-0.0195,0,0,0.0286,0.0258,0.0245,0.0215,0.0168,0.0144,0.0139,0.0085,0.0078,0.0063,0.0054,0.0068,0.0009,0.0032,0.0032,0.0098,0.004,0.0081,0.0159,0.02,0.0217,0.0231,0.0226,0.0239,0.0084,0.0084,0.0084,0,0.0306,0.0287,0.0235,0.0218,0.0211,0.016,0.0163,0.0146,0.0098,0.0117,0.0076,0.0097,0.0061,0.0136,0.0162,0.0129,0.0121,0.0099,0.0218,0.0232,0.0245,0.0235,0.0248,0.009,0.009,0.0089,0.0088,0,0.0311,0.03,0.0291,0.0265,0.0251,0.0238,0.0217,0.0216,0.0202,0.0196,0.0244,0.0221,0.0239,0.024,0.021,0.0303,0.0256,0.0232,0.0178,0.0272,0.0255,0.0267,0.0099,0.0097,0.0095,0.0094,0,0,0.0332,0.0304,0.0301,0.031,0.0278,0.0271,0.0298,0.0317,0.0365,0.0335,0.0411,0.0415,0.0407,0.041,0.0396,0.0431,0.0499,0.0367,0.0367,0.0361,0.0558,0.0474,0.0477,0.0493,0.0496,0.0498,0.0504,0,0.0353,0.0358,0.0338,0.0362,0.0365,0.0354,0.039,0.0409,0.0424,0.048,0.0499,0.0544,0.0472,0.0495,0.0523,0.0516,0.0537,0.0498,0.0469,0.0467,0.0382,0.0492,0.045,0.0448,0.0514,0.0516,0.0517,0,0.0355,0.0362,0.0396,0.0428,0.0432,0.0449,0.0524,0.0547,0.0617,0.0634,0.0689,0.0688,0.0751,0.0673,0.0701,0.0675,0.0623,0.0605,0.0604,0.0497,0.0407,0.0368,0.0465,0.0322,0.0534,0.0533,0.0532,0,0.039,0.0402,0.0446,0.0448,0.0477,0.0512,0.0535,0.0598,0.0656,0.0742,0.08,0.0848,0.0885,0.0858,0.0779,0.0748,0.0798,0.0748,0.0627,0.0618,0.0563,0.0544,0.0521,0.0775,0.0775,0.0775,0.0775,0,0.0413,0.0439,0.0466,0.0482,0.055,0.0554,0.0648,0.0679,0.0776,0.0879,0.0879,0.0978,0.0935,0.0942,0.0851,0.0771,0.0844,0.0667,0.0636,0.0598,0.0583,0.0437,0.0373,0.0775,0.0775,0.0775,0.0775,0,0.0434,0.0452,0.0491,0.0538,0.056,0.0604,0.0696,0.0779,0.0843,0.0987,0.1021,0.1094,0.1092,0.1017,0.0982,0.0861,0.0711,0.0738,0.0668,0.0628,0.0362,0.0307,0.0257,0.0216,0.0621,0.0619,0.0617,0,0.0454,0.0474,0.0527,0.0566,0.0586,0.0657,0.0727,0.0802,0.0909,0.1064,0.116,0.1196,0.1249,0.114,0.0943,0.0775,0.0666,0.0606,0.0547,0.0368,0.0284,0.0239,0.0206,0.0513,0.0511,0.0509,0.0508,0,0.048,0.0491,0.0523,0.0603,0.0673,0.0776,0.0882,0.098,0.1103,0.1224,0.1391,0.1441,0.1308,0.1138,0.0868,0.0739,0.05,0.0561,0.0427,0.0251,0.0155,0.0092,0.045,0.0492,0.0494,0.0495,0.0496,0.0496,0.0496,0.0518,0.0566,0.0648,0.0745,0.0906,0.1013,0.1153,0.1331,0.1516,0.1546,0.1611,0.1315,0.0951,0.0748,0.0318,0.0369,0.0186,0.0148,0.0128,0.0056,0.0349,0.0318,0.0318,0.0319,0.0319,0.032,0,0.0517,0.0551,0.0621,0.0742,0.0884,0.0933,0.1138,0.1266,0.1486,0.159,0.1705,0.157,0.1199,0.0818,0.0255,-0.0035,-0.0111,-0.0182,-0.0238,-0.0239,0.0066,0.0024,-0.0134,-0.0134,-0.0133,-0.0133,-0.0133,-0.0133,0.0535,0.059,0.0631,0.0854,0.0968,0.1174,0.1307,0.1476,0.1585,0.1697,0.1698,0.1706,0.1429,0.0427,-0.0218,-0.0352,-0.0516,-0.0596,-0.0631,-0.0439,-0.0407,-0.0377,-0.0431,-0.0682,-0.0682,-0.092,-0.0923,-0.0925]}],[{"header":{"parameterUnit":"m.s-1","parameterCategory":2,"la1":30.2991,"la2":30.254,"lo1":-89.0895,"lo2":-89.0444,"dy":0.0017,"dx":0.0017,"nx":28,"ny":28,"refTime":"2025-07-13T21:00:00:Z","depth":"2","parameterNumber":2,"parameterNumberName":"U-component_of_CURRENTS"},"data":[0,0,0,0,0,0,0,0,0,0,0,0,0,0,0,0,0,0,0,0,0,0,0,0,0,0,0,0,0,0,0,0,0,0,0,0,0,0,0,0,0,0,0,0,0,0,0,0,0,0,0,0,0,0,0,0,0,0,0.3243,0.3244,0,0.3343,0.3344,0.3344,0.3341,0.3341,0.334,0.3339,0.35,0.3505,0.3509,0,0,0,0,0,0,0,0,0,0,0,0,0,0.341,0.3404,0.3242,0.3245,0.3247,0.3343,0.3344,0.3344,0.3341,0.3341,0.334,0.3339,0.3498,0.3504,0.351,0,0,0,0,0,0,0,0,0,0,0,0,0,0.3397,0.3402,0.3242,0.3263,0.3266,0.3343,0.3344,0.3344,0.3341,0.3341,0.334,0.3339,0.3497,0.3504,0.3511,0.3574,0,0,0.3533,0.3536,0,0,0,0,0,0,0,0,0.3398,0.339,0.3258,0.3262,0.3266,0.3336,0.3462,0.3427,0.3342,0.3304,0.3339,0.3338,0.3457,0.3467,0.3475,0.3581,0.3588,0.3534,0.3538,0.3541,0.3543,0,0,0,0,0,0,0,0.3398,0.3388,0.3274,0.326,0.3265,0.3392,0.3385,0.3456,0.3379,0.3307,0.3309,0.3334,0.3458,0.3468,0.348,0.3591,0.3533,0.354,0.3544,0.3547,0.3785,0.3786,0,0,0,0,0,0,0.3383,0.3386,0.3271,0.3278,0.3341,0.3389,0.3381,0.3308,0.3377,0.3389,0.3335,0.3334,0.3456,0.3471,0.3485,0.3566,0.3541,0.3548,0.3552,0.3783,0.3785,0.3787,0,0,0,0,0,0,0.3384,0.3368,0.3267,0.3349,0.3345,0.3385,0.3305,0.331,0.3396,0.3399,0.341,0.3424,0.3456,0.3475,0.3583,0.3572,0.3551,0.3558,0.378,0.3783,0.3786,0.3726,0,0,0,0,0,0,0.3387,0.3365,0.334,0.3343,0.334,0.3314,0.3307,0.3313,0.3412,0.3413,0.3479,0.3487,0.3457,0.3572,0.359,0.3582,0.3563,0.3778,0.3782,0.3785,0.3726,0.3727,0.3728,0,0,0,0,0,0.3391,0.3338,0.3334,0.3325,0.3287,0.3316,0.3325,0.3351,0.3419,0.3433,0.3497,0.3489,0.3606,0.3581,0.3601,0.3594,0.3776,0.3781,0.3785,0.3726,0.3727,0.3728,0,0,0,0,0,0,0.3322,0.3334,0.333,0.3259,0.3295,0.3318,0.3361,0.3417,0.3485,0.3504,0.3541,0.3553,0.3619,0.3657,0.3629,0.3678,0.3682,0.3691,0.363,0.3632,0.3632,0.3598,0.3569,0,0,0,0,0,0.3314,0.3306,0.3321,0.3263,0.3305,0.3368,0.3409,0.3418,0.3474,0.3507,0.3538,0.3595,0.3645,0.3685,0.3703,0.3781,0.3818,0.3787,0.3787,0.3787,0.3777,0.3947,0.3962,0.3802,0.3801,0.3801,0,0,0.326,0.3276,0.3259,0.3262,0.3307,0.3326,0.3388,0.3439,0.3434,0.3518,0.3543,0.3605,0.367,0.3691,0.3727,0.3731,0.3826,0.3793,0.3792,0.3782,0.3953,0.3968,0.3982,0.3805,0.3804,0.3803,0,0,0.3168,0.3186,0.3169,0.3217,0.3295,0.334,0.3386,0.3434,0.3448,0.3496,0.3542,0.3623,0.3691,0.3705,0.3741,0.3795,0.3822,0.3812,0.3794,0.3959,0.3973,0.3986,0.3925,0.3934,0.3818,0.3817,0.3817,0,0.3131,0.3068,0.3169,0.3178,0.3226,0.3363,0.3362,0.3395,0.3448,0.3456,0.3483,0.3623,0.3676,0.3754,0.3742,0.3788,0.3838,0.3773,0.3958,0.3973,0.3988,0.3924,0.3935,0.3815,0.3815,0.3816,0.3816,0,0.301,0.3006,0.3023,0.3078,0.3138,0.3173,0.3246,0.3272,0.3351,0.3369,0.3452,0.3548,0.364,0.3664,0.3719,0.3845,0.382,0.3933,0.3945,0.4,0.3928,0.394,0.3812,0.3813,0.3813,0.3814,0,0,0.2862,0.2928,0.2946,0.2983,0.3105,0.3149,0.3153,0.3201,0.3232,0.3288,0.3331,0.344,0.3548,0.3602,0.3711,0.3843,0.3942,0.3938,0.3948,0.3851,0.4172,0.3855,0.3836,0.4136,0.4141,0.4145,0.4031,0,0.2772,0.2752,0.282,0.286,0.2891,0.3014,0.301,0.3062,0.3136,0.319,0.3326,0.3426,0.3518,0.3613,0.376,0.3941,0.3995,0.3952,0.4155,0.4155,0.3853,0.385,0.3669,0.3533,0.4043,0.4045,0.4046,0,0.2675,0.2684,0.2665,0.2775,0.2807,0.2861,0.2963,0.2966,0.3052,0.3099,0.3239,0.3366,0.3554,0.3659,0.3938,0.3932,0.4027,0.4129,0.4132,0.3874,0.3866,0.3592,0.3536,0.4067,0.4065,0.4064,0.4062,0,0.2591,0.2632,0.2628,0.2661,0.2749,0.2792,0.288,0.2948,0.2984,0.3105,0.3184,0.338,0.3567,0.376,0.3961,0.4,0.4223,0.4305,0.4046,0.4017,0.3911,0.3863,0.4456,0.4456,0.4456,0.4457,0.4457,0,0.2533,0.2567,0.2609,0.263,0.2665,0.2756,0.2828,0.2889,0.2999,0.3076,0.3209,0.334,0.365,0.3809,0.3935,0.3985,0.421,0.399,0.3998,0.3862,0.3814,0.4362,0.4353,0.4452,0.4453,0.4454,0.4455,0,0.2531,0.2508,0.2562,0.2632,0.264,0.272,0.287,0.2888,0.3007,0.313,0.3194,0.3395,0.3583,0.3737,0.4012,0.3941,0.4014,0.3963,0.3637,0.3605,0.3661,0.3651,0.3612,0.3601,0.3591,0.3583,0.3576,0,0.2545,0.2522,0.259,0.2587,0.2665,0.2746,0.274,0.2877,0.2935,0.3161,0.3219,0.3421,0.3512,0.3623,0.3631,0.3613,0.3818,0.328,0.3301,0.3578,0.3592,0.3597,0.3599,0.3096,0.3086,0.3078,0.3071,0,0.2554,0.2579,0.2611,0.2605,0.264,0.2689,0.2772,0.2793,0.2933,0.304,0.317,0.3255,0.3354,0.3249,0.3161,0.3146,0.3253,0.309,0.3617,0.3297,0.3074,0.3092,0.3117,0.2997,0.3004,0.301,0.3014,0.3017,0.2591,0.26,0.2571,0.2644,0.2647,0.2655,0.2644,0.2691,0.2751,0.2818,0.2969,0.2955,0.2955,0.2721,0.2654,0.2579,0.2786,0.2627,0.2664,0.2708,0.2629,0.2398,0.2166,0.2169,0.2171,0.2173,0.2175,0,0.254,0.2527,0.2556,0.2572,0.2585,0.2636,0.262,0.2524,0.2492,0.2557,0.2577,0.2318,0.2222,0.2289,0.2089,0.196,0.2095,0.1849,0.207,0.2141,0.2204,0.2113,0.1507,0.1505,0.1503,0.1501,0,0,0.2455,0.2404,0.2436,0.246,0.2506,0.2423,0.2389,0.2241,0.2202,0.2065,0.2013,0.2037,0.2153,0.177,0.1716,0.1608,0.1876,0.1542,0.2082,0.2416,0.2478,0.2648,0.2579,0,0,0,0,0]},{"header":{"parameterUnit":"m.s-1","parameterCategory":2,"la1":30.2991,"la2":30.254,"lo1":-89.0895,"lo2":-89.0444,"dy":0.0017,"dx":0.0017,"nx":28,"ny":28,"refTime":"2025-07-13T21:00:00:Z","depth":"2","parameterNumber":3,"parameterNumberName":"V-component_of_CURRENTS"},"data":[0,0,0,0,0,0,0,0,0,0,0,0,0,0,0,0,0,0,0,0,0,0,0,0,0,0,0,0,0,0,0,0,0,0,0,0,0,0,0,0,0,0,0,0,0,0,0,0,0,0,0,0,0,0,0,0,0,0,-0.0119,-0.012,0,-0.0259,-0.026,-0.0262,-0.0341,-0.0341,-0.0342,-0.0342,-0.0417,-0.0418,-0.042,0,0,0,0,0,0,0,0,0,0,0,0,0,0.0061,0.0058,-0.0118,-0.012,-0.0122,-0.0258,-0.026,-0.0262,-0.0341,-0.0341,-0.0342,-0.0342,-0.0416,-0.0418,-0.042,0,0,0,0,0,0,0,0,0,0,0,0,0,-0.0041,0.0057,-0.0118,-0.0179,-0.0186,-0.0258,-0.026,-0.0262,-0.0341,-0.0341,-0.0342,-0.0342,-0.0415,-0.0418,-0.042,-0.0425,0,0,-0.0428,-0.0429,0,0,0,0,0,0,0,0,-0.0035,-0.0047,-0.0168,-0.0175,-0.0183,-0.0284,-0.0225,-0.0314,-0.034,-0.0281,-0.0342,-0.0343,-0.0366,-0.0373,-0.0397,-0.0428,-0.0431,-0.0428,-0.043,-0.0431,-0.0431,0,0,0,0,0,0,0,-0.0028,-0.0042,-0.0173,-0.017,-0.0179,-0.0206,-0.022,-0.0242,-0.0317,-0.0286,-0.0292,-0.0309,-0.037,-0.0395,-0.04,-0.0432,-0.0428,-0.043,-0.0432,-0.0433,-0.0436,-0.0434,0,0,0,0,0,0,-0.0012,-0.0035,-0.0168,-0.0177,-0.011,-0.0209,-0.0225,-0.025,-0.0318,-0.033,-0.0309,-0.0313,-0.039,-0.0397,-0.0402,-0.0382,-0.0431,-0.0433,-0.0434,-0.0437,-0.0435,-0.0434,0,0,0,0,0,0,-0.0007,-0.0022,-0.0163,-0.0109,-0.0129,-0.0211,-0.0238,-0.0252,-0.0271,-0.0336,-0.0347,-0.0312,-0.0391,-0.0399,-0.0422,-0.0386,-0.0434,-0.0436,-0.0439,-0.0436,-0.0434,-0.0359,0,0,0,0,0,0,-0.0002,-0.002,-0.003,-0.0109,-0.0132,-0.0198,-0.0238,-0.0255,-0.0282,-0.0288,-0.0342,-0.0351,-0.0392,-0.0418,-0.0424,-0.0391,-0.0438,-0.044,-0.0438,-0.0435,-0.0363,-0.0355,-0.0347,0,0,0,0,0,0.0005,-0.0011,-0.0029,-0.0046,-0.0144,-0.0198,-0.0211,-0.027,-0.0281,-0.0288,-0.0327,-0.0349,-0.0405,-0.042,-0.0427,-0.0393,-0.0442,-0.0438,-0.0435,-0.0367,-0.0356,-0.0347,0,0,0,0,0,0,0.0071,-0.0023,-0.0045,-0.0085,-0.0131,-0.0211,-0.0229,-0.0256,-0.0294,-0.0297,-0.0346,-0.0358,-0.036,-0.0386,-0.0401,-0.0384,-0.042,-0.0418,-0.0365,-0.0355,-0.0347,-0.0336,-0.044,0,0,0,0,0,0.0081,0.0035,-0.0035,-0.0065,-0.0085,-0.0147,-0.0174,-0.021,-0.0257,-0.0275,-0.0311,-0.0339,-0.0353,-0.0363,-0.0388,-0.0385,-0.0394,-0.0362,-0.0354,-0.0347,-0.0341,-0.0274,-0.0259,-0.0423,-0.0423,-0.0423,0,0,0.0098,0.0041,0.0016,-0.0055,-0.0096,-0.0119,-0.0165,-0.0201,-0.0212,-0.0273,-0.0292,-0.0316,-0.0346,-0.0349,-0.0349,-0.0367,-0.0319,-0.0343,-0.0337,-0.0335,-0.0269,-0.0253,-0.0238,-0.0421,-0.0422,-0.0422,0,0,0.0111,0.0064,0.0036,-0.0002,-0.0062,-0.0096,-0.0096,-0.0161,-0.0181,-0.0208,-0.0238,-0.0239,-0.0283,-0.0288,-0.0296,-0.0253,-0.0277,-0.0253,-0.0204,-0.0138,-0.0124,-0.0111,-0.016,-0.0152,-0.0248,-0.0247,-0.0247,0,0.014,0.0091,0.0026,-0.0002,-0.0022,-0.0074,-0.008,-0.011,-0.0171,-0.0164,-0.0204,-0.0213,-0.025,-0.0212,-0.0216,-0.0232,-0.0236,-0.0241,-0.0126,-0.0113,-0.0101,-0.0154,-0.0146,-0.0243,-0.0244,-0.0244,-0.0245,0,0.013,0.01,0.0085,0.0032,0.0012,-0.0008,-0.0049,-0.0055,-0.0078,-0.0101,-0.0079,-0.0124,-0.0122,-0.0127,-0.0176,-0.0098,-0.0147,-0.0122,-0.0148,-0.008,-0.0142,-0.0135,-0.0238,-0.0239,-0.024,-0.0241,0,0,0.0158,0.0094,0.0087,0.0087,0.0029,0.002,0.0019,0.0016,0.0053,0.0002,0.0055,0.001,0.0002,-0.0007,-0.0032,0.0004,0.0041,-0.0031,-0.003,-0.008,0.0112,0.0037,0.0036,0.0103,0.0106,0.0109,0.0013,0,0.0172,0.0155,0.0111,0.0118,0.0114,0.0083,0.0097,0.0094,0.0093,0.0131,0.0113,0.0136,0.0047,0.0064,0.0087,0.008,0.0073,0.0059,0.0052,0.0049,-0.0021,0.0048,0.0054,-0.003,0.002,0.0021,0.0021,0,0.0166,0.0158,0.0174,0.0181,0.0182,0.0184,0.0235,0.0236,0.027,0.0274,0.0298,0.0284,0.0302,0.0237,0.0233,0.0234,0.016,0.0134,0.0132,0.0047,-0.0009,-0.0078,-0.002,0.0032,0.0032,0.0031,0.003,0,0.022,0.0201,0.0231,0.0222,0.0224,0.0246,0.0253,0.0285,0.0331,0.0374,0.0434,0.0437,0.0472,0.0421,0.0319,0.0292,0.032,0.0284,0.0126,0.0114,0.0109,0.0093,0.0276,0.0276,0.0276,0.0276,0.0277,0,0.0244,0.0259,0.026,0.0271,0.0329,0.0304,0.0381,0.0394,0.0463,0.0563,0.0515,0.0614,0.0536,0.0531,0.0394,0.0283,0.0374,0.0136,0.0117,0.0124,0.0112,0.0173,0.0162,0.0272,0.0273,0.0274,0.0275,0,0.0287,0.0283,0.0313,0.0335,0.0349,0.0387,0.0446,0.0518,0.056,0.0702,0.0726,0.0776,0.0762,0.0638,0.0568,0.0396,0.0286,0.0209,0.0155,0.0132,-0.0014,-0.002,0.0006,0.0003,0.0001,-0.0001,-0.0002,0,0.0307,0.033,0.0367,0.04,0.0407,0.0457,0.051,0.0556,0.0665,0.0816,0.0926,0.0943,0.0976,0.0795,0.054,0.0276,0.0274,0.0068,0.0017,-0.0005,-0.0026,-0.0028,-0.0031,-0.0002,-0.0004,-0.0005,-0.0006,0,0.0352,0.0366,0.0393,0.0459,0.0515,0.061,0.0704,0.082,0.0924,0.1041,0.122,0.1244,0.1055,0.0822,0.0446,0.0271,0.0109,0.0029,0.0115,0.0065,-0.0018,-0.0038,-0.0038,-0.0017,-0.0016,-0.0015,-0.0014,-0.0014,0.0383,0.0411,0.0452,0.0522,0.0613,0.0791,0.0894,0.1027,0.1211,0.1375,0.1394,0.1373,0.1081,0.0589,0.0327,0.0032,0.0021,-0.0127,-0.0119,-0.0111,-0.0094,-0.0176,-0.0209,-0.0209,-0.0209,-0.0209,-0.0209,0,0.0412,0.0448,0.0517,0.0641,0.0797,0.0829,0.1051,0.1151,0.1372,0.1433,0.1489,0.119,0.0903,0.0609,0.0142,-0.0159,-0.0143,-0.0227,-0.015,-0.014,-0.0131,-0.0111,-0.0232,-0.0232,-0.0233,-0.0233,0,0,0.0433,0.0491,0.0536,0.079,0.0911,0.112,0.1265,0.1371,0.1434,0.1474,0.1412,0.1261,0.0926,0.057,0.0222,0.0001,-0.0001,-0.0038,-0.0002,0.0137,0.0151,-0.0068,-0.0026,0,0,0,0,0]}],[{"header":{"parameterUnit":"m.s-1","parameterCategory":2,"la1":30.2991,"la2":30.254,"lo1":-89.0895,"lo2":-89.0444,"dy":0.0017,"dx":0.0017,"nx":28,"ny":28,"refTime":"2025-07-13T21:00:00:Z","depth":"4","parameterNumber":2,"parameterNumberName":"U-component_of_CURRENTS"},"data":[0,0,0,0,0,0,0,0,0,0,0,0,0,0,0,0,0,0,0,0,0,0,0,0,0,0,0,0,0,0,0,0,0,0,0,0,0,0,0,0,0,0,0,0,0,0,0,0,0,0,0,0,0,0,0,0,0,0,-0.0021,-0.0022,0,0.0005,0.0006,0.0007,0.0111,0.0113,0.0115,0.0117,0.0201,0.0201,0.0202,0,0,0,0,0,0,0,0,0,0,0,0,0,0.0011,0.0011,-0.0021,-0.0022,-0.0022,0.0005,0.0006,0.0007,0.0111,0.0113,0.0115,0.0117,0.0201,0.0201,0.0202,0,0,0,0,0,0,0,0,0,0,0,0,0,0.002,0.0011,-0.0021,0.0028,0.0033,0.0005,0.0006,0.0008,0.011,0.0113,0.0116,0.0118,0.02,0.0201,0.0202,0.0154,0,0,0.0205,0.0205,0,0,0,0,0,0,0,0,0.0019,0.0019,0.0021,0.0025,0.0029,0.0052,0.0048,0.0057,0.011,0.0088,0.0117,0.012,0.015,0.0155,0.0163,0.0157,0.0161,0.0205,0.0205,0.0206,0.0206,0,0,0,0,0,0,0,0.0018,0.0018,-0.0004,0.0021,0.0025,0.0047,0.0052,0.0051,0.011,0.009,0.0096,0.0088,0.0154,0.0162,0.0166,0.0162,0.0205,0.0206,0.0206,0.0206,0.0282,0.0283,0,0,0,0,0,0,-0.0001,0.0017,-0.0005,-0.0004,0.0023,0.0043,0.0049,0.0047,0.0109,0.0118,0.0085,0.0092,0.0159,0.0164,0.0169,0.0296,0.0206,0.0207,0.0207,0.028,0.0282,0.0284,0,0,0,0,0,0,-0.0,-0.0003,-0.0006,0.0002,0.0003,0.0039,0.0037,0.0046,0.0108,0.0103,0.0116,0.0143,0.0161,0.0168,0.0246,0.0293,0.0207,0.0208,0.0278,0.0281,0.0283,0.0433,0,0,0,0,0,0,0.0001,-0.0003,0.0004,0.0001,0.0001,0.0013,0.0034,0.0045,0.0092,0.0104,0.0155,0.0163,0.0164,0.0246,0.0247,0.0293,0.0208,0.0277,0.0279,0.0282,0.0426,0.044,0.0452,0,0,0,0,0,0.0002,-0.0002,0.0004,0.0002,0.0004,0.0013,0.0018,0.0056,0.0093,0.0124,0.0186,0.0164,0.0263,0.0249,0.025,0.0297,0.0275,0.0279,0.0282,0.042,0.0437,0.0451,0,0,0,0,0,0,0.0024,0.0007,0.0015,0.001,0.0025,0.003,0.005,0.008,0.015,0.0186,0.0197,0.0209,0.029,0.0264,0.0248,0.0321,0.0258,0.0262,0.0362,0.0378,0.0391,0.0427,0.0209,0,0,0,0,0,0.0023,0.0012,0.0014,0.0011,0.0023,0.0047,0.0061,0.0099,0.0142,0.0178,0.0238,0.0275,0.0289,0.0318,0.0336,0.038,0.0347,0.0402,0.0415,0.0426,0.0455,0.0445,0.0461,0.0294,0.0294,0.0294,0,0,0.0026,0.0013,0.001,0.0013,0.0029,0.0066,0.0068,0.0111,0.019,0.0171,0.033,0.0332,0.0312,0.0379,0.0409,0.0377,0.0454,0.0431,0.0441,0.0464,0.0451,0.0467,0.0481,0.0297,0.0296,0.0296,0,0,0.002,0.0025,0.0023,0.0042,0.007,0.01,0.0126,0.0192,0.0279,0.0385,0.0396,0.0445,0.0494,0.0503,0.0495,0.058,0.0524,0.0572,0.0674,0.0665,0.0679,0.0691,0.0664,0.0673,0.0577,0.0578,0.0578,0,0.0036,0.0028,0.0028,0.0043,0.0087,0.0126,0.0185,0.0254,0.0363,0.0451,0.0462,0.056,0.055,0.0601,0.0639,0.0613,0.0593,0.0622,0.0685,0.0696,0.0706,0.0675,0.0682,0.0585,0.0585,0.0584,0.0583,0,0.0023,0.0045,0.0052,0.0094,0.0151,0.0198,0.0297,0.0419,0.0526,0.0591,0.0726,0.0726,0.0779,0.0766,0.0734,0.0796,0.0754,0.0704,0.0652,0.0732,0.0693,0.0698,0.0596,0.0594,0.0591,0.0589,0,0,0.0008,0.0039,0.0046,0.0098,0.0198,0.0245,0.0415,0.0564,0.0687,0.0797,0.0938,0.0966,0.0979,0.0971,0.0933,0.0928,0.0968,0.0864,0.086,0.085,0.0948,0.0885,0.0883,0.0937,0.0939,0.0941,0.0891,0,0.0017,0.0036,0.0087,0.0193,0.0241,0.038,0.0528,0.0682,0.0822,0.0973,0.1006,0.1092,0.1048,0.1071,0.1071,0.0997,0.0991,0.0986,0.0861,0.0858,0.0803,0.0891,0.0947,0.0894,0.0895,0.0896,0.0897,0,0.0005,0.0027,0.0109,0.027,0.0315,0.0423,0.0693,0.0831,0.1035,0.1141,0.1244,0.1259,0.1304,0.1227,0.1186,0.1191,0.11,0.1025,0.102,0.0919,0.0806,0.0796,0.0905,0.0904,0.0904,0.0903,0.0903,0,-0.0021,0.0068,0.0143,0.0186,0.0363,0.0515,0.0663,0.09,0.1038,0.1253,0.1322,0.1399,0.1405,0.1357,0.1204,0.1223,0.11,0.1093,0.0949,0.0941,0.0943,0.093,0.1055,0.1055,0.1055,0.1055,0.1055,0,-0.0021,0.0036,0.0143,0.0188,0.0366,0.0521,0.0756,0.0931,0.1133,0.1235,0.1391,0.1386,0.1436,0.1356,0.125,0.1102,0.1132,0.0999,0.0942,0.1003,0.0998,0.0945,0.0933,0.1053,0.1054,0.1054,0.1054,0,-0.005,-0.0008,0.009,0.0274,0.0357,0.0506,0.0788,0.0923,0.113,0.1261,0.1318,0.1395,0.1333,0.1308,0.1183,0.1128,0.0998,0.0905,0.0957,0.0897,0.0854,0.085,0.0863,0.0861,0.0859,0.0857,0.0856,0,-0.0064,-0.0036,0.0128,0.0217,0.0326,0.0542,0.0687,0.0924,0.102,0.1174,0.1171,0.1205,0.1226,0.1045,0.0998,0.0906,0.0847,0.0829,0.0913,0.0901,0.0843,0.0842,0.0841,0.0853,0.0852,0.0852,0.0851,0,-0.0074,-0.0028,0.005,0.0199,0.036,0.0499,0.069,0.074,0.095,0.1096,0.1076,0.1088,0.1012,0.0966,0.0908,0.0788,0.0911,0.0811,0.0817,0.0895,0.0888,0.0833,0.0834,0.0845,0.0846,0.0846,0.0847,0,-0.0069,-0.0034,0.005,0.0202,0.034,0.0419,0.0544,0.0645,0.0762,0.0948,0.0855,0.089,0.0938,0.0882,0.0745,0.0746,0.078,0.0803,0.0811,0.0818,0.0826,0.0812,0.0725,0,0,0,0,0,-0.0056,-0.0041,0.0055,0.018,0.0284,0.0377,0.0512,0.061,0.0748,0.0747,0.0851,0.0783,0.0769,0.0709,0.0706,0.0681,0.0736,0.0672,0.0755,0.0809,0.0816,0.083,0,0,0,0,0,0,-0.0052,0.0005,0.0021,0.0098,0.0184,0.0288,0.0379,0.0478,0.0492,0.0637,0.0607,0.0758,0.07,0.0769,0.069,0.069,0.0738,0.0704,0.0703,0.0804,0.0811,0.0817,0.0834,0,0,0,0,0]},{"header":{"parameterUnit":"m.s-1","parameterCategory":2,"la1":30.2991,"la2":30.254,"lo1":-89.0895,"lo2":-89.0444,"dy":0.0017,"dx":0.0017,"nx":28,"ny":28,"refTime":"2025-07-13T21:00:00:Z","depth":"4","parameterNumber":3,"parameterNumberName":"V-component_of_CURRENTS"},"data":[0,0,0,0,0,0,0,0,0,0,0,0,0,0,0,0,0,0,0,0,0,0,0,0,0,0,0,0,0,0,0,0,0,0,0,0,0,0,0,0,0,0,0,0,0,0,0,0,0,0,0,0,0,0,0,0,0,0,0.0545,0.0545,0,0.0565,0.0566,0.0567,0.064,0.0641,0.0641,0.0642,0.0464,0.0458,0.0453,0,0,0,0,0,0,0,0,0,0,0,0,0,0.0566,0.0566,0.0545,0.0544,0.0544,0.0565,0.0566,0.0567,0.0639,0.0641,0.0642,0.0643,0.0466,0.0459,0.0452,0,0,0,0,0,0,0,0,0,0,0,0,0,0.0576,0.0566,0.0545,0.0577,0.0579,0.0565,0.0566,0.0567,0.0639,0.0641,0.0642,0.0643,0.0468,0.046,0.0451,0.0373,0,0,0.0426,0.0422,0,0,0,0,0,0,0,0,0.0575,0.0576,0.0572,0.0574,0.0577,0.0594,0.0507,0.0489,0.0639,0.0625,0.0642,0.0644,0.0482,0.0473,0.0488,0.0364,0.0357,0.0425,0.042,0.0416,0.0414,0,0,0,0,0,0,0,0.0575,0.0576,0.0561,0.0572,0.0574,0.0588,0.0592,0.0506,0.0549,0.0626,0.063,0.0618,0.0484,0.0497,0.0484,0.0354,0.0425,0.0418,0.0413,0.0409,0.0102,0.0099,0,0,0,0,0,0,0.0554,0.0575,0.0561,0.0561,0.057,0.0586,0.0591,0.0594,0.0554,0.0549,0.0617,0.0621,0.051,0.0494,0.0477,0.038,0.0416,0.0408,0.0404,0.0105,0.0101,0.0098,0,0,0,0,0,0,0.0555,0.0553,0.056,0.0561,0.0562,0.0583,0.0587,0.0593,0.0636,0.0548,0.054,0.0655,0.0511,0.0489,0.0417,0.0373,0.0405,0.0397,0.0109,0.0104,0.01,0.0184,0,0,0,0,0,0,0.0556,0.0554,0.0569,0.056,0.0561,0.0577,0.0585,0.0593,0.0621,0.0628,0.0576,0.056,0.051,0.0431,0.0409,0.0362,0.0391,0.0113,0.0107,0.0101,0.0185,0.0182,0.018,0,0,0,0,0,0.0557,0.0563,0.057,0.0568,0.0575,0.0577,0.0582,0.0605,0.0621,0.0649,0.06,0.0564,0.0376,0.0423,0.0398,0.0347,0.0116,0.0108,0.0102,0.0186,0.0183,0.018,0,0,0,0,0,0,0.058,0.0569,0.0578,0.0582,0.0591,0.0587,0.0608,0.0619,0.0611,0.062,0.0545,0.0525,0.0436,0.0372,0.0425,0.0232,0.0229,0.0217,0.0301,0.0297,0.0295,0.0303,0.0384,0,0,0,0,0,0.0587,0.0595,0.0587,0.0595,0.0601,0.0611,0.0621,0.0641,0.0619,0.0625,0.0575,0.0489,0.038,0.0333,0.0246,0.0154,0.0095,0.0092,0.009,0.0089,0.0072,-0.0053,-0.0066,0.0075,0.0075,0.0075,0,0,0.0604,0.059,0.0603,0.0601,0.0613,0.0626,0.0625,0.0654,0.0657,0.0592,0.0579,0.049,0.0354,0.0257,0.0207,0.0206,0.0023,0.008,0.0081,0.0064,-0.0061,-0.0075,-0.0086,0.007,0.0071,0.0072,0,0,0.0617,0.0628,0.0638,0.0645,0.0655,0.066,0.0673,0.0683,0.0687,0.0645,0.0579,0.0473,0.0345,0.0237,0.0156,0.0077,0.002,0.0037,0.0032,-0.0088,-0.0099,-0.011,-0.0156,-0.0172,0.0033,0.0033,0.0033,0,0.0628,0.0639,0.0644,0.0649,0.066,0.0677,0.07,0.0694,0.0679,0.0637,0.0647,0.0408,0.032,0.0141,0.0117,0.0073,0.0025,0.0071,-0.0085,-0.0097,-0.011,-0.0155,-0.0173,0.0036,0.0036,0.0035,0.0035,0,0.0637,0.0662,0.0668,0.068,0.0703,0.0724,0.0718,0.0721,0.0711,0.0666,0.0525,0.0403,0.0253,0.0191,0.0131,-0.003,-0.0023,-0.0059,-0.0057,-0.0118,-0.0162,-0.0183,0.0041,0.004,0.0039,0.0038,0,0,0.0615,0.0663,0.067,0.0691,0.0726,0.0738,0.0737,0.0704,0.0667,0.0602,0.0508,0.0315,0.025,0.0151,0.0053,-0.006,-0.0167,-0.0088,-0.0095,-0.0095,-0.0378,-0.0256,-0.0266,-0.0218,-0.0223,-0.0226,-0.0354,0,0.0619,0.0638,0.0673,0.0718,0.0735,0.0757,0.0747,0.0718,0.0667,0.0579,0.0411,0.03,0.0232,0.0171,0.0034,-0.0138,-0.0227,-0.0126,-0.0356,-0.0362,-0.0215,-0.0289,-0.024,-0.0369,-0.0374,-0.0377,-0.038,0,0.0616,0.0625,0.0679,0.0721,0.0733,0.0782,0.0768,0.0763,0.0637,0.0584,0.0436,0.0321,0.012,0.0101,-0.0211,-0.0138,-0.0248,-0.036,-0.0368,-0.0305,-0.028,-0.0318,-0.0418,-0.0415,-0.0412,-0.041,-0.0407,0,0.0589,0.0633,0.068,0.0698,0.0746,0.0787,0.0825,0.0766,0.0748,0.0618,0.0558,0.0308,0.0191,-0.0017,-0.0239,-0.0229,-0.0551,-0.0565,-0.0552,-0.0542,-0.0644,-0.0632,-0.0757,-0.0757,-0.0757,-0.0756,-0.0756,0,0.0573,0.0602,0.0687,0.0715,0.0774,0.0815,0.0866,0.0842,0.0789,0.0705,0.0585,0.0425,0.0154,-0.0065,-0.0248,-0.0458,-0.0556,-0.0567,-0.0587,-0.06,-0.0583,-0.0654,-0.0641,-0.0761,-0.076,-0.0759,-0.0758,0,0.055,0.0601,0.0654,0.0735,0.0787,0.0844,0.0972,0.0966,0.0925,0.0816,0.0785,0.0504,0.0234,0.0009,-0.0343,-0.0443,-0.0659,-0.069,-0.0642,-0.0655,-0.0559,-0.0541,-0.0702,-0.0699,-0.0696,-0.0694,-0.0693,0,0.0539,0.0568,0.0693,0.0776,0.0852,0.0961,0.1036,0.1054,0.1009,0.0806,0.0696,0.0471,0.027,-0.0118,-0.0352,-0.0595,-0.062,-0.0685,-0.0669,-0.056,-0.0565,-0.055,-0.0535,-0.0689,-0.0688,-0.0688,-0.0687,0,0.0509,0.0573,0.0623,0.0796,0.0929,0.1035,0.1107,0.1044,0.0965,0.0942,0.0625,0.043,0.0148,-0.0142,-0.0264,-0.048,-0.0634,-0.0661,-0.0668,-0.0654,-0.0547,-0.055,-0.0538,-0.0679,-0.068,-0.0681,-0.0681,0,0.0502,0.0529,0.0641,0.0784,0.0973,0.1041,0.1064,0.0991,0.0953,0.0698,0.0562,0.0295,0.0127,-0.0088,-0.0282,-0.0379,-0.0415,-0.0453,-0.0472,-0.0483,-0.0361,-0.019,-0.0249,0,0,0,0,0,0.0488,0.0515,0.0632,0.0756,0.095,0.1073,0.108,0.1046,0.0902,0.0714,0.0654,0.0399,0.013,-0.0054,-0.0128,-0.0234,-0.0426,-0.0323,-0.0477,-0.0633,-0.0643,-0.0524,0,0,0,0,0,0,0.0474,0.0558,0.0587,0.0748,0.086,0.1025,0.105,0.0937,0.0795,0.0643,0.0487,0.044,0.0168,0.0217,-0.0104,-0.0146,-0.0246,-0.0439,-0.044,-0.0628,-0.0637,-0.0644,-0.0526,0,0,0,0,0]}]]